Miscellaneous Local Product
Issued by NWS Hastings, NE

Home | Current Version | Previous Version | Text Only | Print | Product List | Glossary On
Versions: 1 2 3 4 5 6 7 8 9 10 11 12 13 14 15 16 17 18 19 20 21 22 23 24 25 26 27 28 29 30 31 32 33 34 35 36 37 38 39 40 41 42 43 44 45 46 47 48 49 50
000
AXUS43 KGID 221910
MISGRI

GID CWA HOURLY WEATHER ROUNDUP
NATIONAL WEATHER SERVICE HASTINGS NE
200 PM CDT MON SEP 22 2014

NOTE: "FAIR" INDICATES FEW OR NO CLOUDS BELOW 12,000 FEET WITH NO
SIGNIFICANT WEATHER AND/OR OBSTRUCTIONS TO VISIBILITY.

...SOUTH CENTRAL NEBRASKA...

CITY           SKY/WX    TMP DP  RH WIND       PRES   REMARKS
GRAND ISLAND   PTSUNNY   72  48  42 S13G21    30.25F
HASTINGS       PTSUNNY   71  44  37 S13G21    30.25F
KEARNEY        PTSUNNY   72  48  43 S13G23    30.25F
ORD            PTSUNNY   72  48  42 S16       30.21F
YORK           MOSUNNY   72  48  43 S9        30.25F
AURORA         PTSUNNY   71  44  36 S12       30.25F
LEXINGTON      MOSUNNY   72  48  43 S15       30.23F
HOLDREGE       MOSUNNY   72  46  39 S16G22    30.24F
HEBRON         PTSUNNY   72  43  35 SW5       30.26F

...NEBRASKA PANHANDLE...

CITY           SKY/WX    TMP DP  RH WIND       PRES   REMARKS
CHADRON        CLOUDY    69  48  47 S20       30.03F
ALLIANCE       CLOUDY    61  55  81 SE12      30.12
SCOTTSBLUFF    PTSUNNY   74  55  51 SE14G21   30.08F
SIDNEY         PTSUNNY   69  53  56 S23       30.14F

...WESTERN AND NORTH CENTRAL NEBRASKA...

CITY           SKY/WX    TMP DP  RH WIND       PRES   REMARKS
VALENTINE      CLOUDY    72  43  35 S25G33    30.13F
AINSWORTH      CLOUDY    68  45  42 S18G25    30.17F
ONEILL         MOSUNNY   74  50  43 S14G21    30.19F
BROKEN BOW     CLOUDY    74  48  39 S16G26    30.22F
IMPERIAL       LGT RAIN  61  52  72 S12       30.18F
NORTH PLATTE   CLOUDY    67  46  47 S12       30.19F
MCCOOK         LGT RAIN  75  44  33 S13G24    30.21F

...EASTERN NEBRASKA...

CITY           SKY/WX    TMP DP  RH WIND       PRES   REMARKS
NORFOLK        SUNNY     72  47  40 S10       30.23F
SO SIOUX CITY  MOSUNNY   72  49  44 SW10G20   30.25F
TEKAMAH        SUNNY     73  46  38 S8        30.26F
COLUMBUS       SUNNY     72  48  43 SW10      30.25F
ALBION         MOSUNNY   73  47  39 S14       30.23F
OMAHA EPPLEY   MOSUNNY   71  49  45 S8        30.27F
OFFUTT AFB     SUNNY     72  53  50 SE8       30.27F
MILLARD        SUNNY     71  49  44 SW7       30.26F
LINCOLN        SUNNY     73  46  38 S8        30.27F
NEBRASKA CITY    N/A     71  40  33 S6        30.28F
BEATRICE       SUNNY     73  47  39 S7        30.27F
FALLS CITY     SUNNY     73  50  44 VRB5      30.27F

...NORTHERN KANSAS...

CITY           SKY/WX    TMP DP  RH WIND       PRES   REMARKS
GOODLAND       PTSUNNY   75  51  43 S24G30    30.20F
HILL CITY      LGT RAIN  74  45  35 S13       30.24F
NORTON         CLEAR     73  37  27 SE13G22   30.22F
PHILLIPSBURG   SUNNY     73  43  33 SE14      30.24F
SMITH CENTER   SUNNY     73  45  35 S13G18    30.26F
BELOIT         SUNNY     75  45  33 S5        30.25F
HAYS           MOSUNNY   75  46  35 SE18      30.25F
RUSSELL        MOSUNNY   74  48  39 SE12      30.25F
CONCORDIA      PTSUNNY   72  50  45 VRB7      30.27F
SALINA         MOSUNNY   73  47  39 SE6       30.27F
TOPEKA         SUNNY     74  49  41 CALM      30.28F



USA.gov is the U.S. government's official web portal to all federal, state and local government web resources and services.